Location: Appingedam
(53.3222°N, 6.8488°E)
Time: 19:54:53
(UTC+00:00)

Cosmos 1766 - Pass Details

Date: 15 May 2026
Orbit: 398 x 405 km, 82.5° (Epoch: 7 June)

Event Time Altitude Azimuth Distance (km) Brightness Sun altitude
Rises 21:50:00 0° 348° (NNW) 2,368 8.3 -14.5°
Reaches altitude 10° 21:52:02 10° 347° (NNW) 1,499 6.9 -14.7°
Maximum altitude 21:55:17 81° 262° (W) 425 2.7 -14.9°
Enters shadow 21:56:37 33° 177° (S) 724 3.4 -14.9°
